Regional Weather Roundup
Issued by NWS

Home | Current Version | Previous Version | Text Only | Print | Product List | Glossary On
Versions: 1 2 3 4 5 6 7 8 9 10 11 12 13 14 15 16 17 18 19 20 21 22 23 24 25 26 27 28 29 30 31 32 33 34 35 36 37 38 39 40 41 42 43 44 45 46 47 48 49 50
794
ASUS42 KKEY 240710
RWRKEY

FLORIDA REGIONAL WEATHER ROUNDUP FOR THE FLORIDA KEYS
NATIONAL WEATHER SERVICE KEY WEST FLORIDA
300 AM EDT TUE OCT 24 2017

...SOUTH FLORIDA AND THE KEYS...

CITY           SKY/WX    TMP DP  RH WIND       PRES   REMARKS
FORT MYERS     LGT RAIN  72  72 100 S7        29.91F
SW REGIONAL AP LGT RAIN  75  75 100 SW7       29.92F
NAPLES         LGT RAIN  76  74  93 NW8       29.94F
MIAMI          CLOUDY    79  74  84 SE3       29.94F
WEST KENDALL   CLEAR     77  74  90 SE5       29.94F
HOMESTEAD      PTCLDY    78  77  98 CALM      29.93F
MARATHON       PTCLDY    82  73  74 SE7       29.93F
KEY WEST INTL  PTCLDY    82  76  81 SE13      29.92F

...INTERNATIONAL WEATHER...

CITY           SKY/WX    TMP DP  RH WIND       PRES   REMARKS
NASSAU BAHAMAS NOT AVBL
CANCUN MEXICO  MOCLDY    77  77 100 NW3       29.93S
COZUMEL MEXICO CLOUDY    77  75  94 CALM      29.89F

ADJACENT COASTAL WATERS...

STATION/POSITION TIME  SKY/WX   TEMP    WIND        PRES    WAVE
                                AIR SEA DIR/SP/G            HT/PER
                 (UTC)          (F)     (DEG/KT/KT) (MB)    (FT/S)
PULASKI SHOAL LI 0700            82     130/ 11/ 12 1013.2F
SAND KEY         0650            82                 1013.7F
LONG KEY         NOT AVBL
MOLASSES REEF    0700            82 83  100/  8/ 11 1013.9F
FOWEY ROCKS      0700            80 82  130/ 12/ 14 1014.2F
Buoy 42097       0630               83                N/A     3/ 9

$$




USA.gov is the U.S. government's official web portal to all federal, state and local government web resources and services.